Princeton, MN

10:01 PM CDT on October 20, 2019 (GMT -0500)
Princeton Municipal

Weather History for KPNM - September, 2019

Change the Weather History Date:

Sunday, September 22, 2019

  Actual Average Record
Temperature  
Mean Temperature 60 °F -  
Max Temperature 64 °F 65 °F 91 °F (2017)
Min Temperature 55 °F 42 °F 30 °F (1998)
Degree Days  
Heating Degree Days 6    
Growing Degree Days 10 (Base 50)    
Moisture  
Dew Point 55 °F    
Average Humidity 83    
Maximum Humidity 94    
Minimum Humidity 68    
Precipitation  
Precipitation 0.00 in - - ()
Sea Level Pressure  
Sea Level Pressure 29.86 in    
Wind  
Wind Speed 3 mph (West)    
Max Wind Speed 9 mph    
Max Gust Speed -    
Visibility 10 miles    
Events      
Averages and records for this station are not official NWS values.
T = Trace of Precipitation, MM = Missing Value Source: NWS Daily Summary

Daily Weather History Graph

Daily Weather History Graph

Search for Another Location

Airport or City:

Astronomy

Sep. 22, 2019 Rise Set
Actual Time 7:01 AM CDT 7:12 PM CDT
Civil Twilight 6:31 AM CDT 7:41 PM CDT
Nautical Twilight 5:56 AM CDT 8:16 PM CDT
Astronomical Twilight 5:20 AM CDT 8:52 PM CDT
Moon No Moon Rise 3:27 PM CDT (9/22)
Length of Visible Light 13h 10m
Length of Day
12h 11m
Last Quarter, 44% of the Moon is Illuminated
Sep 22
Last Quarter
Sep 28
New
Oct 5
First Quarter
Oct 13
Full
Oct 21
Last Quarter

Hourly Weather History & Observations

Time (CDT) Temp. Dew Point Humidity Pressure Visibility Wind Dir Wind Speed Gust Speed Precip Events Conditions
12:16 AM 64.4 °F 59.0 °F 83% 29.82 in 10.0 mi SW 3.5 mph - N/A   Clear
12:35 AM 64.4 °F 59.0 °F 83% 29.81 in 10.0 mi WSW 3.5 mph - N/A   Clear
12:36 AM 64.4 °F 59.0 °F 83% 29.81 in 10.0 mi WSW 3.5 mph - N/A   Clear
12:55 AM 64.4 °F 59.0 °F 83% 29.82 in 10.0 mi Calm Calm - N/A   Clear
12:56 AM 64.4 °F 59.0 °F 83% 29.82 in 10.0 mi Calm Calm - N/A   Clear
1:19 AM 62.6 °F 59.0 °F 88% 29.82 in 10.0 mi SW 3.5 mph - N/A   Clear
1:37 AM 62.6 °F 57.2 °F 82% 29.81 in 10.0 mi WSW 4.6 mph - N/A   Clear
1:55 AM 62.6 °F 57.2 °F 82% 29.81 in 10.0 mi WSW 3.5 mph - N/A   Clear
1:56 AM 62.6 °F 57.2 °F 82% 29.81 in 10.0 mi WSW 3.5 mph - N/A   Clear
2:15 AM 62.6 °F 57.2 °F 82% 29.81 in 10.0 mi West 3.5 mph - N/A   Clear
2:16 AM 62.6 °F 57.2 °F 82% 29.81 in 10.0 mi WSW 3.5 mph - N/A   Clear
2:35 AM 62.6 °F 57.2 °F 82% 29.81 in 10.0 mi Calm Calm - N/A   Clear
2:58 AM 60.8 °F 57.2 °F 88% 29.81 in 10.0 mi Calm Calm - N/A   Clear
3:16 AM 60.8 °F 57.2 °F 88% 29.83 in 10.0 mi Calm Calm - N/A   Clear
3:35 AM 60.8 °F 57.2 °F 88% 29.83 in 10.0 mi Calm Calm - N/A   Clear
3:36 AM 60.8 °F 57.2 °F 88% 29.83 in 10.0 mi Calm Calm - N/A   Clear
3:55 AM 60.8 °F 57.2 °F 88% 29.83 in 10.0 mi Calm Calm - N/A   Clear
4:19 AM 60.8 °F 57.2 °F 88% 29.83 in 10.0 mi Calm Calm - N/A   Clear
4:37 AM 60.8 °F 57.2 °F 88% 29.82 in 10.0 mi Calm Calm - N/A   Clear
4:55 AM 60.8 °F 57.2 °F 88% 29.82 in 10.0 mi Calm Calm - N/A   Clear
4:56 AM 60.8 °F 57.2 °F 88% 29.82 in 10.0 mi Calm Calm - N/A   Clear
5:15 AM 59.0 °F 57.2 °F 94% 29.82 in 10.0 mi Calm Calm - N/A   Clear
5:16 AM 59.0 °F 57.2 °F 94% 29.82 in 10.0 mi Calm Calm - N/A   Clear
5:35 AM 59.0 °F 57.2 °F 94% 29.83 in 10.0 mi Calm Calm - N/A   Clear
5:40 AM 59.0 °F 57.2 °F 94% 29.83 in 10.0 mi Calm Calm - N/A   Clear
5:58 AM 59.0 °F 57.2 °F 94% 29.84 in 10.0 mi WSW 3.5 mph - N/A   Clear
6:16 AM 59.0 °F 57.2 °F 94% 29.84 in 10.0 mi Calm Calm - N/A   Clear
6:35 AM 59.0 °F 55.4 °F 88% 29.84 in 10.0 mi Calm Calm - N/A   Clear
6:55 AM 57.2 °F 55.4 °F 94% 29.84 in 10.0 mi Calm Calm - N/A   Clear
7:19 AM 57.2 °F 55.4 °F 94% 29.84 in 10.0 mi Calm Calm - N/A   Clear
7:37 AM 57.2 °F 55.4 °F 94% 29.85 in 10.0 mi West 4.6 mph - N/A   Clear
7:55 AM 59.0 °F 57.2 °F 94% 29.86 in 10.0 mi West 3.5 mph - N/A   Clear
8:15 AM 60.8 °F 57.2 °F 88% 29.86 in 10.0 mi WNW 4.6 mph - N/A   Clear
8:35 AM 62.6 °F 57.2 °F 82% 29.86 in 10.0 mi WNW 9.2 mph - N/A   Clear
8:58 AM 62.6 °F 55.4 °F 77% 29.86 in 10.0 mi WNW 8.1 mph - N/A   Clear
9:16 AM 62.6 °F 53.6 °F 72% 29.86 in 10.0 mi WNW 6.9 mph - N/A   Clear
9:35 AM 64.4 °F 53.6 °F 68% 29.87 in 10.0 mi WNW 6.9 mph - N/A   Clear
9:55 AM 62.6 °F 53.6 °F 72% 29.88 in 10.0 mi WNW 9.2 mph - N/A   Clear
10:19 AM 60.8 °F 53.6 °F 77% 29.88 in 10.0 mi West 9.2 mph - N/A   Clear
10:37 AM 60.8 °F 53.6 °F 77% 29.88 in 10.0 mi WNW 9.2 mph - N/A   Clear
10:55 AM 60.8 °F 51.8 °F 72% 29.89 in 10.0 mi WNW 8.1 mph - N/A   Clear
10:56 AM 60.8 °F 51.8 °F 72% 29.89 in 10.0 mi WNW 8.1 mph - N/A   Clear
11:15 AM 60.8 °F 51.8 °F 72% 29.90 in 10.0 mi West 8.1 mph - N/A   Clear
11:35 AM 60.8 °F 53.6 °F 77% 29.89 in 10.0 mi WNW 5.8 mph - N/A   Clear
11:58 AM 62.6 °F 53.6 °F 72% 29.88 in 10.0 mi West 4.6 mph - N/A   Clear
12:16 PM 62.6 °F 51.8 °F 68% 29.87 in 10.0 mi WNW 3.5 mph - N/A   Clear
12:35 PM 60.8 °F 51.8 °F 72% 29.86 in 10.0 mi Calm Calm - N/A   Clear
12:55 PM 62.6 °F 51.8 °F 68% 29.85 in 10.0 mi NW 4.6 mph - N/A   Clear
12:56 PM 62.6 °F 51.8 °F 68% 29.85 in 10.0 mi NW 4.6 mph - N/A   Clear
1:37 PM 60.8 °F 53.6 °F 77% 29.86 in 10.0 mi West 8.1 mph - N/A   Scattered Clouds
1:55 PM 60.8 °F 51.8 °F 72% 29.87 in 10.0 mi West 6.9 mph - N/A   Scattered Clouds
1:56 PM 60.8 °F 53.6 °F 77% 29.87 in 10.0 mi West 9.2 mph - N/A   Scattered Clouds
2:15 PM 60.8 °F 53.6 °F 77% 29.87 in 10.0 mi West 4.6 mph - N/A   Mostly Cloudy
2:16 PM 60.8 °F 53.6 °F 77% 29.87 in 10.0 mi West 4.6 mph - N/A   Mostly Cloudy
2:35 PM 60.8 °F 53.6 °F 77% 29.87 in 10.0 mi West 4.6 mph - N/A   Mostly Cloudy
2:40 PM 60.8 °F 51.8 °F 72% 29.87 in 10.0 mi West 5.8 mph - N/A   Scattered Clouds
2:58 PM 60.8 °F 51.8 °F 72% 29.87 in 10.0 mi West 4.6 mph - N/A   Scattered Clouds
3:16 PM 60.8 °F 53.6 °F 77% 29.87 in 10.0 mi WNW 5.8 mph - N/A   Scattered Clouds
3:35 PM 60.8 °F 51.8 °F 72% 29.87 in 10.0 mi West 5.8 mph - N/A   Scattered Clouds
3:36 PM 60.8 °F 53.6 °F 77% 29.87 in 10.0 mi West 4.6 mph - N/A   Scattered Clouds
3:55 PM 62.6 °F 53.6 °F 72% 29.87 in 10.0 mi West 3.5 mph - N/A   Clear
3:56 PM 62.6 °F 53.6 °F 72% 29.87 in 10.0 mi West 3.5 mph - N/A   Clear
4:19 PM 62.6 °F 53.6 °F 72% 29.87 in 10.0 mi WSW 4.6 mph - N/A   Clear
4:37 PM 62.6 °F 53.6 °F 72% 29.88 in 10.0 mi WSW 4.6 mph - N/A   Clear
4:55 PM 62.6 °F 53.6 °F 72% 29.89 in 10.0 mi SW 4.6 mph - N/A   Clear
5:15 PM 62.6 °F 53.6 °F 72% 29.89 in 10.0 mi Calm Calm - N/A   Clear
5:16 PM 62.6 °F 53.6 °F 72% 29.89 in 10.0 mi Calm Calm - N/A   Clear
5:35 PM 60.8 °F 53.6 °F 77% 29.88 in 10.0 mi Calm Calm - N/A   Clear
5:40 PM 60.8 °F 53.6 °F 77% 29.88 in 10.0 mi Calm Calm - N/A   Clear
5:58 PM 60.8 °F 53.6 °F 77% 29.88 in 10.0 mi Calm Calm - N/A   Clear
6:16 PM 60.8 °F 53.6 °F 77% 29.88 in 10.0 mi Calm Calm - N/A   Clear
6:35 PM 60.8 °F 55.4 °F 82% 29.88 in 10.0 mi Calm Calm - N/A   Clear
6:36 PM 60.8 °F 55.4 °F 82% 29.88 in 10.0 mi Calm Calm - N/A   Clear
6:55 PM 60.8 °F 55.4 °F 82% 29.87 in 10.0 mi Calm Calm - N/A   Clear
6:56 PM 60.8 °F 55.4 °F 82% 29.87 in 10.0 mi Calm Calm - N/A   Clear
7:19 PM 59.0 °F 55.4 °F 88% 29.87 in 10.0 mi Calm Calm - N/A   Clear
7:37 PM 59.0 °F 55.4 °F 88% 29.87 in 10.0 mi Calm Calm - N/A   Scattered Clouds
7:55 PM 59.0 °F 55.4 °F 88% 29.88 in 10.0 mi Calm Calm - N/A   Scattered Clouds
8:15 PM 57.2 °F 55.4 °F 94% 29.89 in 10.0 mi Calm Calm - N/A   Scattered Clouds
8:16 PM 57.2 °F 55.4 °F 94% 29.89 in 10.0 mi Calm Calm - N/A   Scattered Clouds
8:35 PM 59.0 °F 55.4 °F 88% 29.90 in 10.0 mi Calm Calm - N/A   Clear
8:40 PM 59.0 °F 55.4 °F 88% 29.90 in 10.0 mi Calm Calm - N/A   Clear
8:58 PM 59.0 °F 55.4 °F 88% 29.90 in 10.0 mi Calm Calm - N/A   Clear
9:16 PM 59.0 °F 53.6 °F 82% 29.90 in 10.0 mi Calm Calm - N/A   Clear
9:35 PM 59.0 °F 55.4 °F 88% 29.90 in 10.0 mi Calm Calm - N/A   Clear
9:55 PM 57.2 °F 55.4 °F 94% 29.91 in 10.0 mi SW 3.5 mph - N/A   Clear
9:56 PM 57.2 °F 55.4 °F 94% 29.91 in 10.0 mi Calm Calm - N/A   Clear
10:19 PM 57.2 °F 53.6 °F 88% 29.91 in 10.0 mi Calm Calm - N/A   Clear
10:37 PM 57.2 °F 53.6 °F 88% 29.91 in 10.0 mi Calm Calm - N/A   Clear
10:55 PM 55.4 °F 53.6 °F 94% 29.91 in 10.0 mi Calm Calm - N/A   Clear
11:15 PM 55.4 °F 53.6 °F 94% 29.91 in 10.0 mi Calm Calm - N/A   Clear
11:16 PM 55.4 °F 53.6 °F 94% 29.91 in 10.0 mi Calm Calm - N/A   Clear
11:35 PM 55.4 °F 53.6 °F 94% 29.91 in 10.0 mi Calm Calm - N/A   Clear
11:40 PM 55.4 °F 53.6 °F 94% 29.91 in 10.0 mi Calm Calm - N/A   Clear
11:58 PM 55.4 °F 53.6 °F 94% 29.91 in 10.0 mi Calm Calm - N/A   Clear